Camarillo, CA

6:28 AM PDT on April 27, 2017 (GMT -0700)
Camarillo

Weather History for KCMA - January, 2013

Change the Weather History Date:

Thursday, January 17, 2013

  Actual Average Record
Temperature  
Mean Temperature 72 °F 55 °F  
Max Temperature 79 °F 66 °F 87 °F (1976)
Min Temperature 65 °F 44 °F 32 °F (2007)
Degree Days  
Heating Degree Days 0 11  
Month to date heating degree days 225 187  
Since 1 July heating degree days 771 868  
Cooling Degree Days 7 0  
Month to date cooling degree days 7 0  
Year to date cooling degree days 7 0  
Growing Degree Days 22 (Base 50)    
Moisture  
Dew Point 10 °F    
Average Humidity 10    
Maximum Humidity 13    
Minimum Humidity 6    
Precipitation  
Precipitation 0.00 in 0.12 in 2.56 in (1973)
Month to date precipitation 0.01 2.31  
Year to date precipitation 0.01 2.31  
Since 1 July precipitation 2.72  
Sea Level Pressure  
Sea Level Pressure 30.15 in    
Wind  
Wind Speed 22 mph (ENE)    
Max Wind Speed 36 mph    
Max Gust Speed 46 mph    
Visibility 10 miles    
Events      
T = Trace of Precipitation, MM = Missing Value Source: NWS Daily Summary

Daily Weather History Graph

Daily Weather History Graph

Search for Another Location

Airport or City:

Trip Planner

Search our weather history database for the weather conditions in past years. The results will help you decide how hot, cold, wet, or windy it might be!

Date:

Astronomy

Jan. 17, 2013 Rise Set
Actual Time 7:01 AM PST 5:12 PM PST
Civil Twilight 6:34 AM PST 5:39 PM PST
Nautical Twilight 6:03 AM PST 6:09 PM PST
Astronomical Twilight 5:33 AM PST 6:39 PM PST
Moon 10:30 AM PST (1/17) 11:47 PM PST (1/17)
Length of Visible Light 11h 04m
Length of Day
10h 10m
Waxing Crescent, 39% of the Moon is Illuminated
Jan 17
Waxing Crescent
Jan 18
First Quarter
Jan 26
Full
Feb 3
Last Quarter
Feb 9
New

Hourly Weather History & Observations

Time (PST) Temp. Dew Point Humidity Pressure Visibility Wind Dir Wind Speed Gust Speed Precip Events Conditions
12:55 AM 66.9 °F 14.0 °F 13% 30.17 in 10.0 mi East 17.3 mph 26.5 mph N/A   Clear
1:55 AM 66.9 °F 12.9 °F 12% 30.17 in 10.0 mi ENE 21.9 mph 29.9 mph N/A   Clear
2:55 AM 66.9 °F 12.9 °F 12% 30.17 in 10.0 mi ENE 19.6 mph 25.3 mph N/A   Clear
4:55 AM 66.9 °F 12.9 °F 12% 30.16 in 10.0 mi NE 21.9 mph 28.8 mph N/A   Clear
5:55 AM 66.0 °F 12.9 °F 13% 30.16 in 10.0 mi ENE 15.0 mph 27.6 mph N/A   Clear
6:55 AM 64.9 °F 12.0 °F 13% 30.17 in 10.0 mi East 21.9 mph - N/A   Clear
7:55 AM 66.9 °F 12.0 °F 12% 30.18 in 10.0 mi ENE 25.3 mph 35.7 mph N/A   Clear
8:55 AM 70.0 °F 12.0 °F 11% 30.20 in 10.0 mi ENE 25.3 mph 38.0 mph N/A   Clear
9:55 AM 73.0 °F 10.9 °F 9% 30.20 in 10.0 mi ENE 27.6 mph 36.8 mph N/A   Clear
10:55 AM 75.9 °F 10.0 °F 8% 30.17 in 10.0 mi ENE 25.3 mph 39.1 mph N/A   Clear
11:55 AM 77.0 °F 8.1 °F 7% 30.13 in 10.0 mi ENE 32.2 mph 42.6 mph N/A   Clear
12:55 PM 79.0 °F 7.0 °F 6% 30.11 in 10.0 mi ENE 32.2 mph 38.0 mph N/A   Clear
1:55 PM 79.0 °F 6.1 °F 6% 30.09 in 10.0 mi ENE 31.1 mph 38.0 mph N/A   Clear
2:55 PM 78.1 °F 7.0 °F 7% 30.08 in 10.0 mi ENE 27.6 mph 36.8 mph N/A   Clear
3:55 PM 77.0 °F 8.1 °F 7% 30.10 in 10.0 mi ENE 23.0 mph 33.4 mph N/A   Clear
4:55 PM 73.9 °F 8.1 °F 8% 30.11 in 10.0 mi ENE 15.0 mph - N/A   Clear
5:55 PM 71.1 °F 8.1 °F 9% 30.12 in 10.0 mi ENE 16.1 mph 21.9 mph N/A   Clear
6:55 PM 70.0 °F 7.0 °F 9% 30.14 in 10.0 mi ENE 12.7 mph - N/A   Clear
7:55 PM 69.1 °F 8.1 °F 9% 30.14 in 10.0 mi ENE 17.3 mph - N/A   Clear
8:55 PM 68.0 °F 9.0 °F 10% 30.14 in 10.0 mi ENE 20.7 mph - N/A   Clear
9:55 PM 66.9 °F 9.0 °F 10% 30.15 in 10.0 mi ENE 17.3 mph - N/A   Clear
10:55 PM 66.0 °F 9.0 °F 11% 30.14 in 10.0 mi East 17.3 mph - N/A   Clear
11:55 PM 66.0 °F 9.0 °F 11% 30.15 in 10.0 mi ENE 17.3 mph - N/A   Clear